<?xml version="1.0"?>
<gpx xmlns="http://www.topografix.com/GPX/1/1" xmlns:xsi="http://www.w3.org/2001/XMLSchema-instance" version="1.1" creator="GPX RubyGem 1.0.0 -- http://dougfales.github.io/gpx/" xsi:schemaLocation="http://www.topografix.com/GPX/1/1 http://www.topografix.com/GPX/1/1/gpx.xsd">
  <metadata>
    <name/>
    <time>2026-05-10T02:06:19+00:00</time>
    <bound minlat="90.0" minlon="180.0" maxlat="-90.0" maxlon="-180.0"/>
  </metadata>
  <trk>
    <name/>
    <trkseg>
      <trkpt lat="49.273815" lon="12.54">
        <time>1970-01-01T00:00:00+00:00</time>
        <ele>516.0</ele>
      </trkpt>
      <trkpt lat="49.273711" lon="12.540387">
        <time>1970-01-01T00:00:00+00:00</time>
        <ele>523.0</ele>
      </trkpt>
      <trkpt lat="49.273704" lon="12.540625">
        <time>1970-01-01T00:00:00+00:00</time>
        <ele>526.0</ele>
      </trkpt>
      <trkpt lat="49.273984" lon="12.541615">
        <time>1970-01-01T00:00:00+00:00</time>
        <ele>536.0</ele>
      </trkpt>
      <trkpt lat="49.273948" lon="12.54167">
        <time>1970-01-01T00:00:00+00:00</time>
        <ele>537.0</ele>
      </trkpt>
      <trkpt lat="49.273888" lon="12.541812">
        <time>1970-01-01T00:00:00+00:00</time>
        <ele>541.0</ele>
      </trkpt>
      <trkpt lat="49.273832" lon="12.542148">
        <time>1970-01-01T00:00:00+00:00</time>
        <ele>545.0</ele>
      </trkpt>
      <trkpt lat="49.273539" lon="12.543141">
        <time>1970-01-01T00:00:00+00:00</time>
        <ele>561.0</ele>
      </trkpt>
      <trkpt lat="49.273516" lon="12.543398">
        <time>1970-01-01T00:00:00+00:00</time>
        <ele>563.0</ele>
      </trkpt>
      <trkpt lat="49.273545" lon="12.543807">
        <time>1970-01-01T00:00:00+00:00</time>
        <ele>565.0</ele>
      </trkpt>
      <trkpt lat="49.273545" lon="12.544306">
        <time>1970-01-01T00:00:00+00:00</time>
        <ele>567.0</ele>
      </trkpt>
      <trkpt lat="49.273613" lon="12.544696">
        <time>1970-01-01T00:00:00+00:00</time>
        <ele>570.0</ele>
      </trkpt>
      <trkpt lat="49.273708" lon="12.545059">
        <time>1970-01-01T00:00:00+00:00</time>
        <ele>571.0</ele>
      </trkpt>
      <trkpt lat="49.273714" lon="12.545085">
        <time>1970-01-01T00:00:00+00:00</time>
        <ele>571.0</ele>
      </trkpt>
      <trkpt lat="49.27374" lon="12.545195">
        <time>1970-01-01T00:00:00+00:00</time>
        <ele>571.0</ele>
      </trkpt>
      <trkpt lat="49.273844" lon="12.545417">
        <time>1970-01-01T00:00:00+00:00</time>
        <ele>573.0</ele>
      </trkpt>
      <trkpt lat="49.273805" lon="12.545505">
        <time>1970-01-01T00:00:00+00:00</time>
        <ele>573.0</ele>
      </trkpt>
      <trkpt lat="49.273799" lon="12.545576">
        <time>1970-01-01T00:00:00+00:00</time>
        <ele>573.0</ele>
      </trkpt>
      <trkpt lat="49.273808" lon="12.545646">
        <time>1970-01-01T00:00:00+00:00</time>
        <ele>574.0</ele>
      </trkpt>
      <trkpt lat="49.273845" lon="12.545668">
        <time>1970-01-01T00:00:00+00:00</time>
        <ele>574.0</ele>
      </trkpt>
      <trkpt lat="49.273846" lon="12.545671">
        <time>1970-01-01T00:00:00+00:00</time>
        <ele>574.0</ele>
      </trkpt>
      <trkpt lat="49.273846" lon="12.545671">
        <time>1970-01-01T00:00:00+00:00</time>
        <ele>574.0</ele>
      </trkpt>
      <trkpt lat="49.273845" lon="12.545668">
        <time>1970-01-01T00:00:00+00:00</time>
        <ele>574.0</ele>
      </trkpt>
      <trkpt lat="49.273808" lon="12.545646">
        <time>1970-01-01T00:00:00+00:00</time>
        <ele>574.0</ele>
      </trkpt>
      <trkpt lat="49.273799" lon="12.545576">
        <time>1970-01-01T00:00:00+00:00</time>
        <ele>573.0</ele>
      </trkpt>
      <trkpt lat="49.273805" lon="12.545505">
        <time>1970-01-01T00:00:00+00:00</time>
        <ele>573.0</ele>
      </trkpt>
      <trkpt lat="49.273844" lon="12.545417">
        <time>1970-01-01T00:00:00+00:00</time>
        <ele>573.0</ele>
      </trkpt>
      <trkpt lat="49.27374" lon="12.545195">
        <time>1970-01-01T00:00:00+00:00</time>
        <ele>571.0</ele>
      </trkpt>
      <trkpt lat="49.273714" lon="12.545085">
        <time>1970-01-01T00:00:00+00:00</time>
        <ele>571.0</ele>
      </trkpt>
      <trkpt lat="49.273708" lon="12.545059">
        <time>1970-01-01T00:00:00+00:00</time>
        <ele>571.0</ele>
      </trkpt>
      <trkpt lat="49.273613" lon="12.544696">
        <time>1970-01-01T00:00:00+00:00</time>
        <ele>570.0</ele>
      </trkpt>
      <trkpt lat="49.273545" lon="12.544306">
        <time>1970-01-01T00:00:00+00:00</time>
        <ele>567.0</ele>
      </trkpt>
      <trkpt lat="49.273545" lon="12.543807">
        <time>1970-01-01T00:00:00+00:00</time>
        <ele>565.0</ele>
      </trkpt>
      <trkpt lat="49.273516" lon="12.543398">
        <time>1970-01-01T00:00:00+00:00</time>
        <ele>563.0</ele>
      </trkpt>
      <trkpt lat="49.273539" lon="12.543141">
        <time>1970-01-01T00:00:00+00:00</time>
        <ele>561.0</ele>
      </trkpt>
      <trkpt lat="49.273832" lon="12.542148">
        <time>1970-01-01T00:00:00+00:00</time>
        <ele>545.0</ele>
      </trkpt>
      <trkpt lat="49.273888" lon="12.541812">
        <time>1970-01-01T00:00:00+00:00</time>
        <ele>541.0</ele>
      </trkpt>
      <trkpt lat="49.273948" lon="12.54167">
        <time>1970-01-01T00:00:00+00:00</time>
        <ele>537.0</ele>
      </trkpt>
      <trkpt lat="49.273984" lon="12.541615">
        <time>1970-01-01T00:00:00+00:00</time>
        <ele>536.0</ele>
      </trkpt>
      <trkpt lat="49.273704" lon="12.540625">
        <time>1970-01-01T00:00:00+00:00</time>
        <ele>526.0</ele>
      </trkpt>
      <trkpt lat="49.273711" lon="12.540387">
        <time>1970-01-01T00:00:00+00:00</time>
        <ele>523.0</ele>
      </trkpt>
      <trkpt lat="49.273815" lon="12.54">
        <time>1970-01-01T00:00:00+00:00</time>
        <ele>516.0</ele>
      </trkpt>
    </trkseg>
  </trk>
</gpx>
